Weather History for Kirksville, MO

Change the Weather History Date:

Saturday, July 13, 2013

  Actual Average Record
Temperature  
Mean Temperature 66 °F 75 °F  
Max Temperature 79 °F 85 °F 110 °F (1936)
Min Temperature 52 °F 65 °F -25 °F (1997)
Degree Days  
Heating Degree Days 0 0  
Month to date heating degree days 0 0  
Since 1 June heating degree days 36 16  
Since 1 July heating degree days 0 0  
Cooling Degree Days 1 10  
Month to date cooling degree days 107 124  
Year to date cooling degree days 382 378  
Since 1 June cooling degree days 314 316  
Growing Degree Days 16 (Base 50)    
Moisture  
Dew Point 59 °F    
Average Humidity 74    
Maximum Humidity 93    
Minimum Humidity 54    
Precipitation  
Precipitation 0.00 in 0.14 in 3.69 in (1992)
Month to date precipitation T 1.76  
Year to date precipitation 27.91 20.69  
Sea Level Pressure  
Sea Level Pressure 30.09 in    
Wind  
Wind Speed 5 mph (ESE)    
Max Wind Speed 13 mph    
Max Gust Speed 16 mph    
Visibility 10 miles    
Events      
T = Trace of Precipitation, MM = Missing Value Source: NWS Daily Summary

Daily Weather History Graph

Daily Weather History Graph

Search for Another Location

Airport:

Trip Planner

Search our weather history database for the weather conditions in past years. The results will help you decide how hot, cold, wet, or windy it might be!

Date:

Astronomy

Jul. 13, 2013 Rise Set
Actual Time 5:52 AM CDT 8:39 PM CDT
Civil Twilight 5:20 AM CDT 9:11 PM CDT
Nautical Twilight 4:40 AM CDT 9:51 PM CDT
Astronomical Twilight 3:54 AM CDT 10:37 PM CDT
Moon 11:09 AM CDT (7/13) 11:19 PM CDT (7/13)
Length of Visible Light 15h 50m
Length of Day
14h 46m
Waxing Crescent, 26% of the Moon is Illuminated
Jul 13
Waxing Crescent
Jul 15
First Quarter
Jul 22
Full
Jul 29
Last Quarter
Aug 6
New

Hourly Weather History & Observations

Time (CDT) Temp. Dew Point Humidity Pressure Visibility Wind Dir Wind Speed Gust Speed Precip Events Conditions
12:55 AM 57.9 °F 53.1 °F 84% 30.08 in 10.0 mi SE 3.5 mph - N/A   Clear
1:55 AM 59.0 °F 53.1 °F 81% 30.09 in 10.0 mi ESE 4.6 mph - N/A   Clear
2:55 AM 55.9 °F 52.0 °F 87% 30.09 in 10.0 mi Calm Calm - N/A   Clear
3:55 AM 55.0 °F 52.0 °F 89% 30.08 in 10.0 mi ESE 3.5 mph - N/A   Clear
4:55 AM 53.1 °F 51.1 °F 93% 30.08 in 10.0 mi ESE 3.5 mph - N/A   Clear
5:55 AM 53.1 °F 51.1 °F 93% 30.09 in 10.0 mi SE 3.5 mph - N/A   Clear
6:55 AM 60.1 °F 55.0 °F 83% 30.09 in 10.0 mi SSE 5.8 mph - N/A   Clear
7:55 AM 64.9 °F 57.9 °F 78% 30.11 in 10.0 mi SSE 5.8 mph - N/A   Clear
8:55 AM 70.0 °F 59.0 °F 68% 30.12 in 10.0 mi SSE 9.2 mph - N/A   Clear
9:55 AM 73.0 °F 60.1 °F 64% 30.12 in 10.0 mi South 10.4 mph - N/A   Clear
10:55 AM 75.0 °F 61.0 °F 62% 30.12 in 10.0 mi SSE 9.2 mph - N/A   Clear
11:55 AM 75.9 °F 61.0 °F 60% 30.11 in 10.0 mi South 10.4 mph - N/A   Clear
12:55 PM 75.9 °F 62.1 °F 62% 30.11 in 10.0 mi South 5.8 mph - N/A   Clear
1:55 PM 78.1 °F 61.0 °F 56% 30.11 in 10.0 mi Calm Calm - N/A   Clear
2:55 PM 79.0 °F 61.0 °F 54% 30.10 in 10.0 mi East 6.9 mph - N/A   Clear
3:55 PM 75.9 °F 61.0 °F 60% 30.09 in 10.0 mi East 6.9 mph - N/A   Clear
4:55 PM 75.0 °F 63.0 °F 66% 30.07 in 10.0 mi SE 5.8 mph - N/A   Partly Cloudy
5:55 PM 73.9 °F 63.0 °F 68% 30.07 in 10.0 mi East 3.5 mph - N/A   Clear
6:55 PM 73.0 °F 64.0 °F 73% 30.06 in 10.0 mi East 4.6 mph - N/A   Clear
7:55 PM 72.0 °F 64.0 °F 76% 30.05 in 10.0 mi ENE 4.6 mph - N/A   Clear
8:55 PM 70.0 °F 63.0 °F 78% 30.06 in 10.0 mi ENE 5.8 mph - N/A   Clear
9:55 PM 66.9 °F 62.1 °F 84% 30.08 in 10.0 mi NE 3.5 mph - N/A   Clear
10:55 PM 64.9 °F 61.0 °F 87% 30.09 in 10.0 mi East 4.6 mph - N/A   Clear
11:55 PM 60.1 °F 57.9 °F 93% 30.09 in 6.0 mi Calm Calm - N/A   Clear